Location: Betra
(48.4113°N, 8.6634°E)
Time: 17:09:08
(UTC+00:00)

CRYOSAT 2 - Pass Details

Date: 23 May 2024
Orbit: 719 x 720 km, 92.0° (Epoch: 16 June)

Event Time Altitude Azimuth Distance (km) Brightness Sun altitude
Rises 01:59:13 0° 2° (N) 3,142 8.6 -12.5°
Reaches altitude 10° 02:01:31 10° 359° (N) 2,217 7.7 -12.3°
Maximum altitude 02:06:22 64° 279° (W) 798 4.5 -11.8°
Enters shadow 02:10:32 14° 200° (SSW) 1,953 6.0 -11.4°
